Location: Staunton
(38.1490°N, 79.0720°W)
Time: 00:02:33
(UTC-05:00)

ISS - Pass Details

Date: 13 November 2018
Orbit: 402 x 408 km, 51.6° (Epoch: 17 November)

Event Time Altitude Azimuth Distance (km) Brightness Sun altitude
Exits shadow 05:12:40 34° 12° (NNE) 694 -2.7 -20.2°
Maximum altitude 05:13:08 36° 33° (NNE) 664 -2.6 -20.2°
Drops below altitude 10° 05:16:11 10° 102° (ESE) 1,457 0.2 -19.6°
Sets 05:18:21 0° 111° (ESE) 2,315 1.5 -19.1°
